Flag for Germany Weather past 2 weeks in Erding, Bavaria, Germany

Now
43 °F

Partly sunny.


Feels Like: 36 °F
Forecast: 35 / 42 °F
Wind: 14 mph from Northwest

Location: Munich / Franz Josef Strauss Airport

Current Time: Dec 20, 2014 at 3:00:00 PM

Latest Report: Dec 20, 2014 at 2:20 PM


Visibility: N/A

Pressure: 30.18 "Hg

Humidity: 71%

Dew point: 34 °F

Location of ErdingLocation

Historic Weather in Erding — Graph

°F

Erding temperature yesterday

Maximum temperature yesterday: 55 °F (at 11:20 AM)
Minimum temperature yesterday: 46 °F (at 7:20 AM)
Average temperature yesterday: 51 °F

Past Weeks' High & Low Weather Summary

 TemperatureHumidityPressure
High55 °F (Dec 14, 12:20 PM)100% (Dec 5, 1:50 PM)30.42 "Hg (Dec 5, 1:50 PM)
Low25 °F (Dec 9, 7:50 PM)47% (Dec 14, 2:20 PM)29.80 "Hg (Dec 12, 6:20 PM)
Average41 °F85%30.06 "Hg
* Reported Dec 5 1:20 PM — Dec 20 1:50 PM, Erding, Weather by CustomWeather, © 2014

Note: Actual official high and low records may vary slightly from our data, if they occured in-between our weather recording intervals... More about our weather records

Advertising

Erding weather history for previous 24 hours

 ConditionsComfort  
Time TempWeatherWind HumidityBarometerVisibility
1:50 PM
Dec 20
43 °FPartly sunny.20 mph71%30.18 "HgN/A
1:20 PM43 °FScattered clouds.17 mph76%30.18 "HgN/A
12:50 PM43 °FScattered clouds.18 mph71%30.21 "HgN/A
12:20 PM45 °FPartly sunny.21 mph71%30.21 "HgN/A
11:50 AM45 °FPartly sunny.17 mph76%30.21 "HgN/A
11:20 AM43 °FPartly sunny.14 mph81%30.21 "HgN/A
10:50 AM43 °FPartly sunny.9 mph81%30.24 "HgN/A
10:20 AM41 °FScattered clouds.10 mph87%30.24 "HgN/A
9:50 AM39 °FPassing clouds.9 mph87%30.24 "HgN/A
9:20 AM37 °FPassing clouds.6 mph93%30.24 "HgN/A
8:50 AM37 °FPassing clouds.7 mph93%30.24 "HgN/A
8:20 AM37 °FPassing clouds.6 mph87%30.24 "HgN/A
7:50 AM39 °FPassing clouds.7 mph87%30.24 "HgN/A
7:20 AM39 °FPartly cloudy.6 mph87%30.24 "HgN/A
6:50 AM41 °FPartly cloudy.7 mph87%30.24 "HgN/A
6:20 AM41 °FPassing clouds.3 mph87%30.24 "HgN/A
5:50 AM41 °FPassing clouds.5 mph93%30.24 "HgN/A
5:20 AM43 °FPassing clouds.7 mph81%30.21 "HgN/A
4:50 AM43 °FPassing clouds.9 mph87%30.21 "HgN/A
4:20 AM43 °FPassing clouds.9 mph87%30.21 "HgN/A
3:50 AM41 °FPassing clouds.7 mph93%30.18 "HgN/A
3:20 AM41 °FPassing clouds.6 mph100%30.18 "HgN/A
2:50 AM43 °FPassing clouds.7 mph93%30.18 "HgN/A
2:20 AM45 °FSprinkles. Passing clouds.15 mph93%30.18 "Hg5 mi
1:50 AM46 °FLight rain. Passing clouds.13 mph87%30.15 "HgN/A
1:20 AM46 °FPassing clouds.15 mph87%30.15 "HgN/A
12:50 AM46 °FPassing clouds.12 mph87%30.15 "HgN/A
12:20 AM46 °FLight rain. Passing clouds.14 mph87%30.12 "HgN/A
11:50 PM
Dec 19
48 °FRain. Mostly cloudy.14 mph87%30.12 "Hg5 mi
11:20 PM48 °FRain. Mostly cloudy.20 mph94%30.12 "Hg5 mi
10:50 PM48 °FRain. Mostly cloudy.15 mph94%30.09 "Hg5 mi
10:20 PM48 °FLight rain. Mostly cloudy.24 mph94%30.07 "HgN/A
9:50 PM48 °FRain. Mostly cloudy.28 mph94%30.07 "Hg4 mi
9:20 PM50 °FLight rain. Partly cloudy.25 mph88%30.07 "HgN/A
8:50 PM50 °FLight rain. Partly cloudy.23 mph88%30.07 "HgN/A
8:20 PM50 °FPartly cloudy.23 mph88%30.07 "HgN/A
7:50 PM50 °FLight rain. Partly cloudy.20 mph88%30.07 "HgN/A
7:20 PM50 °FLight rain. Partly cloudy.20 mph82%30.04 "HgN/A
6:50 PM52 °FPassing clouds.22 mph72%30.04 "HgN/A
6:20 PM52 °FPassing clouds.23 mph72%30.04 "HgN/A
5:50 PM52 °FPassing clouds.20 mph72%30.04 "HgN/A
5:20 PM52 °FPassing clouds.20 mph72%30.04 "HgN/A
4:50 PM52 °FPassing clouds.21 mph72%30.01 "HgN/A
4:20 PM54 °FPassing clouds.23 mph67%30.04 "HgN/A
3:50 PM54 °FPartly sunny.22 mph63%30.04 "HgN/A
3:20 PM54 °FPartly sunny.22 mph67%30.04 "HgN/A
Weather by CustomWeather, © 2014

See weather overviewHow to use our weather pages